Weather History for Valdosta, GA

Change the Weather History Date:

Monday, October 3, 2011

  Actual Average Record
Temperature  
Mean Temperature 60 °F -  
Max Temperature 75 °F 80 °F 89 °F (2006)
Min Temperature 45 °F 62 °F 45 °F (2011)
Degree Days  
Heating Degree Days 5    
Growing Degree Days 10 (Base 50)    
Moisture  
Dew Point 41 °F    
Average Humidity 54    
Maximum Humidity 77    
Minimum Humidity 24    
Precipitation  
Precipitation 0.00 in - - ()
Sea Level Pressure  
Sea Level Pressure 30.14 in    
Wind  
Wind Speed 6 mph (North)    
Max Wind Speed 12 mph    
Max Gust Speed -    
Visibility 10 miles    
Events      
Averages and records for this station are not official NWS values.
T = Trace of Precipitation, MM = Missing Value Source: NWS Daily Summary

Daily Weather History Graph

Daily Weather History Graph

Search for Another Location

Airport:

Trip Planner

Search our weather history database for the weather conditions in past years. The results will help you decide how hot, cold, wet, or windy it might be!

Date:

Astronomy

Oct. 03, 2011 Rise Set
Actual Time 7:27 AM EDT 7:15 PM EDT
Civil Twilight 7:03 AM EDT 7:39 PM EDT
Nautical Twilight 6:35 AM EDT 8:07 PM EDT
Astronomical Twilight 6:07 AM EDT 8:35 PM EDT
Moon 2:03 PM EDT (10/3) No Moon Set
Length of Visible Light 12h 36m
Length of Day
11h 48m
Waxing Crescent, 45% of the Moon is Illuminated
Oct 3
Waxing Crescent
Oct 3
First Quarter
Oct 11
Full
Oct 19
Last Quarter
Oct 26
New

Hourly Weather History & Observations

Time (EDT) Temp. Windchill Dew Point Humidity Pressure Visibility Wind Dir Wind Speed Gust Speed Precip Events Conditions
12:55 AM 53.8 °F - 43.0 °F 67% 30.09 in 10.0 mi NNW 6.9 mph - N/A   Clear
1:55 AM 53.6 °F - 41.5 °F 64% 30.10 in 10.0 mi North 6.9 mph - N/A   Clear
2:55 AM 51.6 °F - 40.3 °F 65% 30.10 in 10.0 mi North 6.9 mph - N/A   Clear
3:55 AM 48.9 °F - 39.0 °F 69% 30.10 in 10.0 mi North 5.8 mph - N/A   Clear
4:55 AM 47.1 °F - 38.5 °F 72% 30.10 in 10.0 mi North 5.8 mph - N/A   Clear
5:55 AM 49.5 °F - 37.2 °F 63% 30.12 in 10.0 mi North 5.8 mph - N/A   Clear
6:55 AM 45.5 °F 42.5 °F 38.1 °F 75% 30.13 in 10.0 mi North 5.8 mph - N/A   Clear
7:55 AM 46.6 °F - 38.5 °F 73% 30.14 in 10.0 mi North 8.1 mph - N/A   Clear
8:55 AM 53.4 °F - 39.9 °F 60% 30.16 in 10.0 mi NNE 6.9 mph - N/A   Clear
9:55 AM 59.5 °F - 39.9 °F 48% 30.18 in 10.0 mi NE 11.5 mph - N/A   Clear
10:55 AM 64.9 °F - 40.5 °F 41% 30.19 in 10.0 mi ENE 10.4 mph - N/A   Clear
11:55 AM 68.0 °F - 42.6 °F 40% 30.19 in 10.0 mi ENE 6.9 mph - N/A   Clear
12:55 PM 70.9 °F - 41.4 °F 34% 30.18 in 10.0 mi NW 4.6 mph - N/A   Clear
1:55 PM 73.8 °F - 38.7 °F 28% 30.15 in 10.0 mi NW 10.4 mph - N/A   Clear
2:55 PM 75.0 °F - 39.7 °F 28% 30.13 in 10.0 mi North 8.1 mph - N/A   Clear
3:55 PM 75.6 °F - 38.8 °F 27% 30.12 in 10.0 mi North 10.4 mph - N/A   Clear
4:55 PM 75.7 °F - 36.0 °F 24% 30.11 in 10.0 mi NNE 6.9 mph - N/A   Clear
5:55 PM 75.7 °F - 36.0 °F 24% 30.10 in 10.0 mi NNW 3.5 mph - N/A   Clear
6:55 PM 73.9 °F - 35.6 °F 25% 30.08 in 10.0 mi NNW 2.3 mph - N/A   Clear
7:55 PM 66.2 °F - 44.6 °F 46% 30.14 in 10.0 mi SSE 2.3 mph - N/A   Clear
8:57 PM 59.0 °F - 46.4 °F 63% 30.14 in 10.0 mi Variable 2.3 mph - N/A   Clear
9:53 PM 57.2 °F - 46.4 °F 67% 30.15 in 10.0 mi Variable 2.3 mph - N/A   Clear
9:55 PM 57.2 °F - 46.4 °F 67% 30.15 in 10.0 mi Variable 2.3 mph - N/A   Clear
10:55 PM 55.4 °F - 46.4 °F 72% 30.16 in 10.0 mi SSW 2.3 mph - N/A   Clear
11:54 PM 53.6 °F - 46.4 °F 77% 30.17 in 10.0 mi SSW 2.3 mph - N/A   Clear
11:55 PM 53.6 °F - 46.4 °F 77% 30.17 in 10.0 mi SSW 2.3 mph - N/A   Clear